Location: Eyeline Observatory
(43.2182°N, 78.8632°W)
Time: 03:50:36
(UTC-05:00)

Envisat - Pass Details

Date: 13 October 2017
Orbit: 764 x 766 km, 98.2° (Epoch: 17 December)

Event Time Altitude Azimuth Distance (km) Brightness Sun altitude
Exits shadow 19:16:48 10° 76° (ENE) 2,329 4.8 -8.3°
Reaches altitude 10° 19:16:58 10° 74° (ENE) 2,308 4.8 -8.4°
Maximum altitude 19:18:28 11° 57° (ENE) 2,221 4.9 -8.6°
Drops below altitude 10° 19:19:57 10° 40° (NE) 2,312 5.1 -8.9°
Sets 19:24:02 0° 7° (N) 3,245 6.1 -9.6°
